This is the latest recevied weather packets stored in our database for station/object K5NAN. If no packets are shown the sender has not sent any weather packets the latest 10 day(s).
| Time | Temp. | Humidity | Pressure | Rain* | Wind** | Luminosity | Snow |
|---|---|---|---|---|---|---|---|
| 1778004292 | 27.22° C | 69% | 1003.8 hPa | 0 mm | - | 533 W/m² | - |
| 1778003989 | 26.67° C | 71% | 1003.9 hPa | 0 mm | - | 796 W/m² | - |
| 1778003685 | 26.67° C | 70% | 1003.7 hPa | 0 mm | - | 487 W/m² | - |
| 1778003382 | 26.67° C | 70% | 1003.9 hPa | 0 mm | - | 656 W/m² | - |
| 1778003079 | 26.67° C | 71% | 1003.9 hPa | 0 mm | - | 658 W/m² | - |
| 1778002775 | 26.67° C | 71% | 1003.9 hPa | 0 mm | - | 647 W/m² | - |
| 1778002472 | 26.11° C | 71% | 1004 hPa | 0 mm | - | 745 W/m² | - |
| 1778002169 | 26.11° C | 72% | 1004.3 hPa | 0 mm | - | 677 W/m² | - |
| 1778001868 | 25.56° C | 72% | 1004.1 hPa | 0 mm | - | 422 W/m² | - |
| 1778001566 | 25.56° C | 72% | 1004.2 hPa | 0 mm | - | 387 W/m² | - |
| 1778001264 | 26.11° C | 72% | 1004.2 hPa | 0 mm | - | 584 W/m² | - |
| 1778000960 | 26.11° C | 70% | 1004.1 hPa | 0 mm | - | 718 W/m² | - |
| 1778000657 | 26.11° C | 71% | 1003.9 hPa | 0 mm | - | 939 W/m² | - |
| 1778000352 | 25.56° C | 72% | 1004.3 hPa | 0 mm | - | 698 W/m² | - |
| 1778000048 | 25.56° C | 73% | 1004.4 hPa | 0 mm | - | 553 W/m² | - |
| 1777999743 | 25.56° C | 73% | 1004.4 hPa | 0 mm | - | 546 W/m² | - |
| 1777999440 | 25° C | 74% | 1004.3 hPa | 0 mm | - | 589 W/m² | - |
| 1777999139 | 25° C | 74% | 1004.3 hPa | 0 mm | - | 437 W/m² | - |
| 1777998838 | 25° C | 74% | 1004 hPa | 0 mm | - | 507 W/m² | - |
| 1777998536 | 25° C | 75% | 1003.9 hPa | 0 mm | - | 518 W/m² | - |
| 1777998231 | 25° C | 75% | 1004 hPa | 0 mm | - | 405 W/m² | - |
| 1777997928 | 25° C | 75% | 1003.8 hPa | 0 mm | - | 679 W/m² | - |
| 1777997625 | 24.44° C | 76% | 1003.7 hPa | 0 mm | - | 657 W/m² | - |
| 1777997323 | 24.44° C | 76% | 1003.8 hPa | 0 mm | - | 522 W/m² | - |
| 1777997021 | 24.44° C | 77% | 1003.7 hPa | 0 mm | - | 437 W/m² | - |
* Rain latest hour (hover to see other rain measurements)
** Current wind speed in m/s (hover to see current wind gust speed)